Regional Weather Roundup
Issued by NWS

Home | Current Version | Previous Version | Text Only | Print | Product List | Glossary On
Versions: 1 2 3 4 5 6 7 8 9 10 11 12 13 14 15 16 17 18 19 20 21 22 23 24 25 26 27 28 29 30 31 32 33 34 35 36 37 38 39 40 41 42 43 44 45 46 47 48 49 50
000
ASUS42 KFFC 021210
RWRGA
WEATHER ROUNDUP FOR GEORGIA
NATIONAL WEATHER SERVICE PEACHTREE CITY GA
800 AM EDT SUN AUG 02 2015

NOTE: "FAIR" INDICATES FEW OR NO CLOUDS BELOW 12,000 FEET WITH NO
SIGNIFICANT WEATHER AND/OR OBSTRUCTIONS TO VISIBILITY.

* = USE WITH CAUTION. THE STATIONS MARKED WITH AN ASTERISK MAY NOT
REPORT WEATHER SUCH AS PRECIPITATION, FOG, OR THUNDER AND ARE NOT
QUALITY CONTROLLED BY NWS.

THE REMARK "TC" DENOTES TEMPERATURE READING IN DEGREES CELSIUS.

GAZ001>058-021300-
NORTH GEORGIA

CITY           SKY/WX    TMP DP  RH WIND       PRES   REMARKS
ATLANTA        MOSUNNY   74  60  61 NE6       29.96R
6HR MIN TEMP:  70; 6HR MAX TEMP:  80;

ATHENS         MOSUNNY   74  59  59 NE6       29.95R
6HR MIN TEMP:  68; 6HR MAX TEMP:  76;

CHAMBLEE       MOSUNNY   72  62  71 N5        29.96S
6HR MIN TEMP:  68; 6HR MAX TEMP:  76;

PEACHTREE CITY SUNNY     69  66  90 CALM      29.96R
6HR MIN TEMP:  67; 6HR MAX TEMP:  71;

ROME           SUNNY     65  63  93 CALM      29.97R
6HR MIN TEMP:  62; 6HR MAX TEMP:  68;

WEST ATLANTA   SUNNY     67  63  87 CALM      29.95S
6HR MIN TEMP:  65; 6HR MAX TEMP:  74;

GAINESVILLE    MOSUNNY   71  59  65 NE8       30.00S
6HR MIN TEMP:  68; 6HR MAX TEMP:  74;

CARTERSVILLE   SUNNY     63  60  90 CALM      29.97S
6HR MIN TEMP:  60; 6HR MAX TEMP:  64;



CITY           SKY/WX    TMP DP  RH WIND       PRES   REMARKS
DALTON*        MOSUNNY   64  64 100 CALM      29.97S
LAWRENCEVILLE* SUNNY     70  54  56 CALM      29.96R
MARIETTA       MOSUNNY   70  63  76 N3        29.96S
BLAIRSVILLE*     N/A     60  53  76 CALM      30.04S
$$

GAZ059>098-102>109-021300-
CENTRAL GEORGIA

CITY           SKY/WX    TMP DP  RH WIND       PRES   REMARKS
AUGUSTA-BUSH   FOG       74  74 100 SE3       29.93R VSB<1/4
6HR MIN TEMP:  72; 6HR MAX TEMP:  74;

AUGUSTA-DANIEL CLOUDY    76  73  91 CALM      29.94S FOG
6HR MIN TEMP:  75; 6HR MAX TEMP:  76;

COLUMBUS       SUNNY     73  69  87 CALM      29.91R
6HR MIN TEMP:  72; 6HR MAX TEMP:  76;

MACON          CLOUDY    75  72  90 CALM      29.91S FOG
6HR MIN TEMP:  71; 6HR MAX TEMP:  75;

ROBINS AFB     CLOUDY    75  73  94 NE2       29.91R


CITY           SKY/WX    TMP DP  RH WIND       PRES   REMARKS
LAGRANGE*      SUNNY     74  71  91 CALM      29.95R
SYLVANIA*      FOG       75  75 100 CALM      29.93S VSB 1/2
MILLEDGEVILLE* CLOUDY    75  72  88 CALM      29.93R
$$

GAZ099>101-110>166-021300-
SOUTH GEORGIA

CITY           SKY/WX    TMP DP  RH WIND       PRES   REMARKS
SAVANNAH       PTSUNNY   77  73  87 CALM      29.91F
6HR MIN TEMP:  76; 6HR MAX TEMP:  78;

VALDOSTA       CLOUDY    77  75  93 E5        29.87R
6HR MIN TEMP:  76; 6HR MAX TEMP:  77; 6HR PCP: TRACE;

ALMA           CLOUDY    76  73  91 SE5       29.89R
6HR MIN TEMP:  76; 6HR MAX TEMP:  78;

ST SIMONS      PTSUNNY   77  72  84 S6        29.91R
6HR MIN TEMP:  76; 6HR MAX TEMP:  79; 6HR PCP: TRACE;

ALBANY         CLOUDY    76  74  93 NE7       29.89S
HUNTER AFB     MOSUNNY   77  77  99 CALM      29.89S
MOODY AFB      CLOUDY    76  73  90 E8        29.87R
BRUNSWICK      CLOUDY    79  72  78 S7        29.92R


CITY           SKY/WX    TMP DP  RH WIND       PRES   REMARKS
BAINBRIDGE*    CLOUDY    79  77  94 N5        29.87R
MOULTRIE*      CLOUDY    77  73  88 CALM      29.88R
VIDALIA*       CLOUDY    75  73  94 CALM      29.91S
WAYCROSS*      CLOUDY    78  76  92 SE3       29.90R
DOUGLAS*       CLOUDY    79  77  94 E3        29.90S
$$


USA.gov is the U.S. government's official web portal to all federal, state and local government web resources and services.